Content
SEND FEEDBACK

Daily
Averages
Monthly
Summary
Greece

KALAMAKI, GREECE


Home > Europe > Greece
Elevation: 49 feet     Latitude: 37 54N     Longitude: 023 43E

WEATHER
 
SELECT A DAY
Number of Records: 76,660;   Date Range: 4/14/01 - 7/27/14
 
SHARE

PRINT THIS DATA

[ ← Previous Day ]
WEATHER ALMANAC - JANUARY 31, 2013
[ Next Day → ]
[ °C ]   °F
Weather ElementAverageHighLow
Temperature50.1 °F60.8 °F (1:50 pm)35.6 °F (6:50 am)
Dewpoint37.3 °F46.4 °F (5:20 pm)28.4 °F (10:50 pm)
Humidity63.1 %87 % (7:20 am)38 % (11:20 pm)
Barometer29.95 in30.01 in (12:50 am)29.86 in (2:20 pm)
Wind Speed6.4 mph23 mph (11:20 pm)
Wind Gust26.5 mph (8:20 pm)
Weather ElementAverage
Visibility6.2 mi
Wind DirectionSSW (186.6 °)

Weather ElementTotal
Precipitation---
Heating Degree Days16.8 (Base 65)
Averaged from 47 records on January 31, 2013
WEATHER CONDITIONS BREAKOUT
WIND DIRECTION BREAKOUT
WEATHER BY HOUR - JANUARY 31, 2013
[ °C ]   °F
Local TimeTemperatureDewpointHumidityBarometerVisibilityWind DirectionWind SpeedGust SpeedPrecipitationEventsConditions
12:50 AM46.4 °F37.4 °F71 %30.01 in6.2 miVariable2.3 mphScattered Clouds
1:20 AM46.4 °F35.6 °F66 %30.01 in6.2 miWest (260°)3.5 mphScattered Clouds
1:50 AM44.6 °F33.8 °F66 %30.01 in6.2 miNW (310°)2.3 mphScattered Clouds
2:20 AM42.8 °F33.8 °F70 %30.01 in6.2 miWNW (300°)3.5 mphScattered Clouds
2:50 AM44.6 °F33.8 °F66 %30.01 in6.2 miWest (280°)4.6 mphScattered Clouds
3:20 AM41.0 °F33.8 °F76 %30.01 in6.2 miWSW (250°)3.5 mphScattered Clouds
3:50 AM41.0 °F33.8 °F76 %29.98 in6.2 miVariable1.2 mphScattered Clouds
4:20 AM41.0 °F33.8 °F76 %29.98 in6.2 miWest (260°)4.6 mphScattered Clouds
4:50 AM39.2 °F32.0 °F75 %29.98 in6.2 miWest (270°)4.6 mphPartly Cloudy
5:20 AM41.0 °F33.8 °F76 %29.98 in6.2 miWNW (300°)1.2 mphPartly Cloudy
5:50 AM37.4 °F30.2 °F75 %29.98 in6.2 miWest (270°)2.3 mphPartly Cloudy
6:20 AM37.4 °F32.0 °F81 %29.98 in6.2 miWest (280°)2.3 mphPartly Cloudy
6:50 AM35.6 °F30.2 °F81 %29.95 in6.2 miWest (260°)2.3 mphPartly Cloudy
7:20 AM35.6 °F32.0 °F87 %29.95 in6.2 miVariable2.3 mphPartly Cloudy
7:50 AM37.4 °F33.8 °F87 %29.95 in6.2 miVariable1.2 mphPartly Cloudy
8:20 AM39.2 °F35.6 °F87 %29.95 in6.2 miCalmPartly Cloudy
8:50 AM41.0 °F37.4 °F87 %29.95 in6.2 miVariable1.2 mphPartly Cloudy
9:20 AM46.4 °F41.0 °F81 %29.95 in6.2 miVariable1.2 mphPartly Cloudy
9:50 AM51.8 °F41.0 °F67 %29.95 in6.2 miVariable2.3 mphPartly Cloudy
10:20 AM53.6 °F41.0 °F62 %29.95 in6.2 miSSW (210°)8.1 mphPartly Cloudy
10:50 AM57.2 °F41.0 °F55 %29.92 in6.2 miVariable3.5 mphPartly Cloudy
11:20 AM57.2 °F41.0 °F55 %29.92 in6.2 miWSW (240°)6.9 mphPartly Cloudy
11:50 AM57.2 °F41.0 °F55 %29.92 in6.2 miSW (220°)10.4 mphScattered Clouds
12:20 PM59.0 °F42.8 °F55 %29.92 in6.2 miSSW (210°)10.4 mphScattered Clouds
12:50 PM59.0 °F42.8 °F55 %29.89 in6.2 miSouth (190°)11.5 mphPartly Cloudy
1:20 PM59.0 °F42.8 °F55 %29.89 in6.2 miSouth (190°)13.8 mphPartly Cloudy
1:50 PM60.8 °F42.8 °F52 %29.89 in6.2 miSouth (190°)8.1 mphScattered Clouds
2:20 PM60.8 °F42.8 °F52 %29.86 in6.2 miVariable3.5 mphScattered Clouds
2:50 PM59.0 °F41.0 °F51 %29.86 in6.2 miSW (220°)6.9 mphMostly Cloudy
3:20 PM57.2 °F41.0 °F55 %29.86 in6.2 miSouth (170°)5.8 mphMostly Cloudy
3:50 PM57.2 °F42.8 °F59 %29.86 in6.2 miSSE (150°)4.6 mphMostly Cloudy
4:20 PM57.2 °F42.8 °F59 %29.86 in6.2 miVariable2.3 mphMostly Cloudy
4:50 PM57.2 °F44.6 °F63 %29.86 in6.2 miVariable3.5 mphMostly Cloudy
5:20 PM57.2 °F46.4 °F67 %29.89 in6.2 miNW (310°)4.6 mphMostly Cloudy
5:50 PM55.4 °F44.6 °F67 %29.92 in6.2 miNorth (10°)8.1 mphMostly Cloudy
6:20 PM55.4 °F44.6 °F67 %29.92 in6.2 miNNE (20°)6.9 mphMostly Cloudy
6:50 PM55.4 °F39.2 °F54 %29.92 in6.2 miNNW (340°)17.3 mphMostly Cloudy
7:20 PM55.4 °F39.2 °F54 %29.92 in6.2 miNNW (340°)8.1 mphMostly Cloudy
7:50 PM53.6 °F37.4 °F54 %29.95 in6.2 miVariable2.3 mphScattered Clouds
8:20 PM53.6 °F37.4 °F54 %29.95 in6.2 miNNW (330°)13.8 mph26.5 mphScattered Clouds
8:50 PM53.6 °F35.6 °F51 %29.98 in6.2 miNNW (340°)13.8 mphScattered Clouds
9:20 PM51.8 °F37.4 °F58 %29.98 in6.2 miNorth (360°)9.2 mphScattered Clouds
9:50 PM53.6 °F32.0 °F44 %30.01 in6.2 miNorth (350°)9.2 mphScattered Clouds
10:20 PM51.8 °F30.2 °F44 %30.01 in6.2 miNNW (340°)11.5 mphScattered Clouds
10:50 PM51.8 °F28.4 °F41 %30.01 in6.2 miNW (320°)12.7 mphScattered Clouds
11:20 PM53.6 °F28.4 °F38 %30.01 in6.2 miNorth (350°)23.0 mphPartly Cloudy
11:50 PM51.8 °F28.4 °F41 %30.01 in6.2 miNNW (330°)13.8 mph25.3 mphPartly Cloudy
Hourly data recorded from LGAV, located miles away from Kalamaki, Greece







STORIES FROM OUR PARTNERS